Location: Aalen
(48.8330°N, 10.1000°E)
Time: 23:41:07
(UTC+02:00)

Transit 4A - Pass Details

Date: 05 August 2021
Orbit: 870 x 974 km, 66.8° (Epoch: 26 September)

Event Time Altitude Azimuth Distance (km) Brightness Sun altitude
Rises 23:30:50 0° 187° (S) 3,485 - -19.7°
Reaches altitude 10° 23:33:29 10° 179° (S) 2,538 - -19.9°
Exits shadow 23:38:04 36° 130° (SE) 1,354 8.3 -20.2°
Maximum altitude 23:38:49 38° 113° (ESE) 1,320 8.3 -20.3°
Drops below altitude 10° 23:44:07 10° 48° (NE) 2,526 10.4 -20.7°
Sets 23:46:44 0° 41° (NE) 3,468 11.2 -20.9°
